Home > Weather > Scranton > Past weeks

Flag for USA Past Weather in Scranton, Pennsylvania, USA — Yesterday and Last 2 Weeks

Now
81 °F

Clear.


Feels Like: 83 °F
Forecast: 73 / 90 °F
Wind: 8 mph from Southwest

Location: Barre - Scranton - Wilkes-Barre / Scranton International Airport

Current Time: Jul 25, 2016 at 12:21:18 AM

Latest Report: Jul 24, 2016 at 11:54 PM


Visibility: 10 mi

Pressure: 29.95 "Hg

Humidity: 58%

Dew Point: 65 °F

Location of ScrantonLocation

Past Weather in Scranton — Graph

°F

Scranton Temperature Yesterday

Maximum temperature yesterday: 93 °F (at 4:54 PM)
Minimum temperature yesterday: 65 °F (at 5:54 AM)
Average temperature yesterday: 80 °F

High & Low Weather Summary for the Past Weeks

 TemperatureHumidityPressure
High95 °F (Jul 23, 3:54 PM)97% (Jul 17, 5:54 AM)30.25 "Hg (Jul 17, 5:54 AM)
Low55 °F (Jul 11, 5:54 AM)17% (Jul 21, 4:54 PM)29.78 "Hg (Jul 14, 5:54 PM)
Average76 °F61%30.01 "Hg
* Reported Jul 9 10:54 PM — Jul 24 10:54 PM, Scranton, Weather by CustomWeather, © 2016

Note: Actual official high and low records may vary slightly from our data, if they occured in-between our weather recording intervals... More about our weather records

Advertising

Scranton Weather History for the Previous 24 Hours

Scroll right to see more
 ConditionsComfort  
Time TempWeatherWind HumidityBarometerVisibility
10:54 PM
Sun, Jul 24
84 °FClear.9 mph48%29.95 "Hg10 mi
9:54 PM83 °FClear.7 mph44%29.95 "Hg10 mi
8:54 PM84 °FSunny.No wind43%29.94 "Hg10 mi
7:54 PM87 °FSunny.3 mph37%29.93 "Hg10 mi
6:54 PM90 °FSunny.8 mph32%29.93 "Hg10 mi
5:54 PM91 °FSunny.8 mph30%29.93 "Hg10 mi
4:54 PM93 °FSunny.13 mph28%29.93 "Hg10 mi
3:54 PM92 °FPassing clouds.9 mph35%29.93 "Hg10 mi
2:54 PM91 °FSunny.9 mph36%29.94 "Hg10 mi
1:54 PM89 °FSunny.8 mph36%29.97 "Hg10 mi
12:54 PM90 °FSunny.13 mph33%29.98 "Hg10 mi
11:54 AM87 °FSunny.5 mph39%29.99 "Hg10 mi
10:54 AM84 °FSunny.3 mph45%29.99 "Hg10 mi
9:54 AM80 °FSunny.5 mph51%30.01 "Hg10 mi
8:54 AM76 °FSunny.3 mph54%30.01 "Hg10 mi
7:54 AM70 °FSunny.5 mph68%30.01 "Hg10 mi
6:54 AM66 °FSunny.No wind75%30.00 "Hg10 mi
5:54 AM65 °FClear.3 mph76%29.98 "Hg10 mi
4:54 AM66 °FClear.7 mph73%29.96 "Hg10 mi
3:54 AM67 °FClear.5 mph71%29.97 "Hg10 mi
2:54 AM69 °FClear.7 mph66%29.96 "Hg10 mi
1:54 AM71 °FClear.7 mph63%29.95 "Hg10 mi
12:54 AM72 °FClear.7 mph61%29.94 "Hg10 mi
Weather by CustomWeather, © 2016

See weather overviewHow to use our weather pages